Lobo

Go HERE for most recent data if this page is not up to date.

Jump to table bottom
Date/Time Temp deg F RH % 24 Hr Snow (in) Snow Depth (in) H2O (in)
12/09 02:00 12.1 78 0.3 28.4 0.00
12/09 01:00 12.3 75 0.3 28.6 0.00
12/09 00:00 12.4 71 0.3 28.4 0.00
12/08 23:00 13.3 73 0.2 28.4 0.00
12/08 22:00 14.5 82 0.2 28.3 0.00
12/08 21:00 15.4 85 0.2 28.4 0.00
12/08 20:00 16.2 87 0.2 28.6 0.01
12/08 19:00 17.0 89 0.1 28.4 0.00
12/08 18:00 17.7 90 0.2 28.6 0.00
12/08 17:00 19.3 92 0.1 28.5 0.00
12/08 16:00 21.5 72 0.1 28.6 0.00
12/08 15:00 22.4 85 3.7 28.3 0.02
12/08 14:00 24.2 79 3.6 28.2 0.00
12/08 13:00 25.2 87 3.5 28.1 0.01
12/08 12:00 24.4 71 3.8 28.4 0.01
12/08 11:00 24.6 86 3.7 28.3 0.01
12/08 10:00 24.9 93 3.6 28.2 0.09
12/08 09:00 25.2 89 2.4 27.1 0.01
12/08 08:00 25.7 89 2.3 27.0 0.01
12/08 07:00 25.9 88 2.4 27.3 0.00
12/08 06:00 25.5 92 2.4 27.3 0.03
12/08 05:00 25.6 95 1.9 26.8 0.02
12/08 04:00 25.3 94 1.6 26.5 0.02
12/08 03:00 25.2 95 1.4 26.1 0.04
12/08 02:00 25.0 95 0.9 25.5 0.03
12/08 01:00 25.2 96 0.5 25.2 0.00
12/08 00:00 25.5 85 0.3 24.9 0.00
.